CDT,Max TemperatureF,Mean TemperatureF,Min TemperatureF,Max Dew PointF,MeanDew PointF,Min DewpointF,Max Humidity, Mean Humidity, Min Humidity, Max Sea Level PressureIn, Mean Sea Level PressureIn, Min Sea Level PressureIn, Max VisibilityMiles, Mean VisibilityMiles, Min VisibilityMiles, Max Wind SpeedMPH, Mean Wind SpeedMPH, Max Gust SpeedMPH,PrecipitationIn, CloudCover, Events, WindDirDegrees
2013-9-1,69,56,44,59,52,43,100,79,46,30.07,29.96,29.81,10,9,2,16,11,21,0.00,6,Rain,333
2013-9-2,75,60,44,55,46,36,94,67,27,30.14,30.08,30.03,10,10,10,8,1,,0.00,2,,13
2013-9-3,82,62,42,59,52,39,100,70,39,30.04,30.00,29.95,10,10,10,18,5,22,0.00,0,,202
2013-9-4,77,62,48,55,45,34,93,62,23,30.21,30.16,30.05,10,10,10,9,5,,0.00,0,,27
2013-9-5,84,64,44,61,49,36,81,61,37,30.22,30.15,30.03,10,10,10,13,3,,0.00,0,,146
2013-9-6,89,76,62,66,63,61,94,69,43,30.02,29.94,29.87,10,10,7,13,5,17,0.00,0,,188
2013-9-7,82,72,62,66,58,50,100,67,35,30.12,30.02,29.92,10,9,4,13,4,20,0.00,1,Rain,41
2013-9-8,64,60,57,57,53,48,94,77,59,30.10,30.01,29.87,10,10,7,13,6,18,0.00,5,Rain,130
2013-9-9,69,63,57,66,61,55,100,91,83,29.87,29.74,29.62,10,7,1,10,4,16,0.48,8,Rain-Thunderstorm,190
2013-9-10,73,65,57,63,59,55,100,85,53,29.94,29.88,29.79,10,8,1,10,4,,0.01,5,,244
2013-9-11,77,62,46,61,52,45,100,73,32,30.17,30.03,29.91,10,9,0,23,6,31,0.00,1,Fog,257
2013-9-12,71,58,44,52,45,39,100,72,35,30.30,30.25,30.17,10,10,7,14,2,18,0.00,3,,346
2013-9-13,73,56,39,48,44,37,100,66,38,30.26,30.15,29.97,10,10,10,18,5,23,0.00,0,,179
2013-9-14,68,60,53,55,51,46,100,79,56,29.97,29.91,29.86,10,10,4,18,10,26,0.03,3,Rain,187
2013-9-15,66,52,39,55,47,34,100,80,43,30.34,30.20,29.97,10,10,2,14,6,20,0.01,4,,20
2013-9-16,68,50,33,48,40,30,93,69,35,30.36,30.29,30.13,10,10,10,18,5,22,0.00,0,,164
2013-9-17,62,56,50,54,50,43,88,80,68,30.13,29.98,29.85,10,10,10,18,14,25,0.00,5,,160
2013-9-18,73,64,55,64,59,54,94,85,65,29.85,29.72,29.61,10,8,4,18,7,23,0.00,7,Thunderstorm,146
2013-9-19,71,63,53,66,58,52,100,86,53,29.84,29.73,29.60,10,9,0,16,5,25,0.04,4,Fog-Rain-Thunderstorm,277
2013-9-20,53,48,42,50,45,39,94,83,72,29.97,29.91,29.84,10,10,7,17,10,23,0.02,7,Rain,313
2013-9-21,64,48,32,52,40,32,100,81,40,30.02,29.97,29.90,10,8,0,6,1,,0.00,3,Fog,152
2013-9-22,73,58,42,54,47,39,87,67,43,29.92,29.78,29.68,10,10,10,23,11,32,0.00,0,,133
2013-9-23,75,68,60,52,50,48,72,58,38,29.81,29.73,29.70,10,10,10,24,18,32,0.00,0,,154
2013-9-24,71,60,50,54,49,43,88,71,43,29.94,29.90,29.81,10,10,10,18,8,25,0.00,2,,187
2013-9-25,73,60,48,55,50,46,94,70,47,29.93,29.87,29.81,10,10,7,20,6,24,0.00,0,,141
2013-9-26,78,66,55,57,53,48,82,64,42,29.83,29.76,29.71,10,10,10,28,11,34,0.00,4,,142
2013-9-27,66,58,50,61,53,48,100,89,73,29.82,29.76,29.71,10,9,2,9,2,9,0.17,6,Rain-Thunderstorm,304
2013-9-28,53,48,42,48,46,43,100,94,72,29.81,29.70,29.54,10,9,4,21,8,30,1.18,6,Rain,282
2013-9-29,71,56,41,48,43,39,93,64,35,29.82,29.74,29.56,10,10,10,20,10,25,0.00,0,,171
2013-9-30,75,64,53,55,48,43,77,59,31,29.56,29.54,29.49,10,10,10,14,6,21,0.00,0,,194